Retour au catalogue

TITAN 3C TRANSTAGE DEB

ActifLEO
NORAD 2799·DEBRIS·🇺🇸 United States

Lancé Oct 15, 1965 depuis Cape Canaveral Space Force Station

Loading…

Prochains Passages (prochaines 24 heures)

TLE

FraisSource: Space-Track

Époque: Sep 14, 2026, 00:53 UTC

1 02799U 65082KX  26257.03698759  .00001060  00000-0  14951-3 0  9997
2 02799  32.0551 167.7435 0032864  17.2962  92.5251 14.74314379169270

Suivez TITAN 3C TRANSTAGE DEB en temps réel avec AllMySat

Download on the App Store